• In Spain
  • List of Countries
  • For 7 days
  • Water Temperature
  • Satellite Maps
  • Weather Map
  • Weather Widgets
  • user-avatar
    Login

    Hourly Weather Mostar

    Today, 24 October, Wednesday

    Time Temperature Precipitation Wind Pressure Humidity
    00:00 +12°C° 0 mm 2 mps 754 mmHg 70%
    01:00 +12°C° 0 mm 2 mps 754 mmHg 66%
    02:00 +13°C° 0 mm 2 mps 754 mmHg 61%
    03:00 +13°C° 0 mm 2 mps 753 mmHg 57%
    04:00 +13°C° 0 mm 2 mps 753 mmHg 52%
    05:00 +13°C° 0 mm 2 mps 753 mmHg 50%
    06:00 +14°C° 0 mm 2 mps 752 mmHg 49%
    07:00 +14°C° 0 mm 2 mps 752 mmHg 47%
    08:00 +16°C° 0 mm 2 mps 752 mmHg 43%
    09:00 +19°C° 0 mm 2 mps 752 mmHg 39%
    10:00 +21°C° 0 mm 2 mps 752 mmHg 35%
    11:00 +21°C° 0 mm 3 mps 751 mmHg 38%
    12:00 +21°C° 0 mm 3 mps 751 mmHg 41%
    13:00 +22°C° 0 mm 4 mps 751 mmHg 44%
    14:00 +21°C° 0 mm 4 mps 751 mmHg 47%
    15:00 +21°C° 0 mm 4 mps 750 mmHg 51%
    16:00 +20°C° 0 mm 4 mps 750 mmHg 54%
    17:00 +19°C° 0 mm 4 mps 751 mmHg 58%
    18:00 +18°C° 0 mm 4 mps 751 mmHg 61%
    19:00 +17°C° 0 mm 4 mps 752 mmHg 65%
    20:00 +15°C° 0 mm 4 mps 752 mmHg 67%
    21:00 +15°C° 0 mm 4 mps 753 mmHg 69%
    22:00 +14°C° 0 mm 4 mps 754 mmHg 71%
    23:00 +13°C° 0 mm 4 mps 755 mmHg 71%

    Tomorrow, 25 October, Thursday

    Time Temperature Precipitation Wind Pressure Humidity
    00:00 +12°C° 0 mm 5 mps 755 mmHg 70%
    01:00 +10°C° 0 mm 5 mps 756 mmHg 70%
    02:00 +9°C° 0 mm 5 mps 756 mmHg 68%
    03:00 +10°C° 0 mm 4 mps 756 mmHg 67%
    04:00 +8°C° 0 mm 4 mps 757 mmHg 66%
    05:00 +8°C° 0 mm 4 mps 757 mmHg 65%
    06:00 +8°C° 0 mm 4 mps 757 mmHg 64%
    07:00 +8°C° 0 mm 4 mps 758 mmHg 62%
    08:00 +11°C° 0 mm 3 mps 758 mmHg 58%
    09:00 +15°C° 0 mm 2 mps 758 mmHg 54%
    10:00 +17°C° 0 mm 2 mps 758 mmHg 50%
    11:00 +18°C° 0 mm 2 mps 757 mmHg 48%
    12:00 +19°C° 0 mm 2 mps 757 mmHg 47%
    13:00 +20°C° 0 mm 2 mps 756 mmHg 46%
    14:00 +19°C° 0 mm 2 mps 756 mmHg 50%
    15:00 +20°C° 0 mm 1 mps 756 mmHg 54%
    16:00 +19°C° 0 mm 1 mps 755 mmHg 59%
    17:00 +18°C° 0 mm 1 mps 756 mmHg 64%
    18:00 +15°C° 0 mm 1 mps 756 mmHg 69%
    19:00 +14°C° 0 mm 1 mps 756 mmHg 74%
    20:00 +14°C° 0 mm 1 mps 756 mmHg 74%
    21:00 +14°C° 0 mm 1 mps 756 mmHg 74%
    22:00 +14°C° 0 mm 2 mps 756 mmHg 74%
    23:00 +14°C° 0 mm 2 mps 756 mmHg 74%

    Day after tomorrow, 26 October, Friday

    Time Temperature Precipitation Wind Pressure Humidity
    00:00 +14°C° 0 mm 2 mps 756 mmHg 73%
    01:00 +14°C° 0 mm 2 mps 755 mmHg 73%
    02:00 +14°C° 0 mm 2 mps 755 mmHg 73%
    03:00 +13°C° 0 mm 3 mps 755 mmHg 73%
    04:00 +12°C° 0 mm 3 mps 755 mmHg 73%
    05:00 +13°C° 0 mm 3 mps 755 mmHg 72%
    06:00 +13°C° 0 mm 3 mps 755 mmHg 72%
    07:00 +13°C° 0 mm 3 mps 755 mmHg 72%
    08:00 +15°C° 0 mm 4 mps 755 mmHg 68%
    09:00 +18°C° 0 mm 4 mps 755 mmHg 64%
    10:00 +20°C° 0 mm 5 mps 754 mmHg 61%
    11:00 +20°C° 0 mm 5 mps 754 mmHg 62%
    12:00 +21°C° 0 mm 6 mps 754 mmHg 62%
    13:00 +21°C° 0 mm 6 mps 753 mmHg 63%
    14:00 +20°C° 0 mm 6 mps 753 mmHg 66%
    15:00 +20°C° 0 mm 6 mps 753 mmHg 69%
    16:00 +19°C° 0 mm 5 mps 753 mmHg 72%
    17:00 +19°C° 0 mm 5 mps 753 mmHg 72%
    18:00 +17°C° 0 mm 5 mps 753 mmHg 73%
    19:00 +17°C° 0 mm 5 mps 753 mmHg 73%
    20:00 +17°C° 0.2 mm 5 mps 753 mmHg 77%
    21:00 +18°C° 0.2 mm 4 mps 753 mmHg 80%
    22:00 +18°C° 0.2 mm 4 mps 753 mmHg 84%
    23:00 +18°C° 0.3 mm 4 mps 753 mmHg 86%

    27 October, Saturday

    Time Temperature Precipitation Wind Pressure Humidity
    00:00 +18°C° 0.3 mm 4 mps 753 mmHg 89%
    01:00 +18°C° 0.3 mm 4 mps 753 mmHg 91%
    02:00 +18°C° 0.2 mm 4 mps 752 mmHg 91%
    03:00 +18°C° 0.2 mm 4 mps 752 mmHg 92%
    04:00 +19°C° 0.2 mm 5 mps 752 mmHg 93%
    05:00 +19°C° 0.3 mm 5 mps 752 mmHg 92%
    06:00 +19°C° 0.3 mm 5 mps 751 mmHg 91%
    07:00 +19°C° 0.3 mm 5 mps 751 mmHg 91%
    08:00 +20°C° 0.3 mm 6 mps 751 mmHg 89%
    09:00 +20°C° 0.3 mm 6 mps 751 mmHg 86%
    10:00 +20°C° 0.3 mm 6 mps 751 mmHg 84%
    11:00 +21°C° 0.4 mm 7 mps 751 mmHg 83%
    12:00 +21°C° 0.4 mm 7 mps 751 mmHg 82%
    13:00 +21°C° 0.4 mm 7 mps 750 mmHg 80%
    14:00 +21°C° 0.5 mm 7 mps 750 mmHg 81%
    15:00 +20°C° 0.5 mm 7 mps 750 mmHg 82%
    16:00 +20°C° 0.5 mm 6 mps 749 mmHg 83%
    17:00 +20°C° 0.5 mm 6 mps 749 mmHg 85%
    18:00 +20°C° 0.5 mm 6 mps 750 mmHg 86%
    19:00 +20°C° 0.5 mm 7 mps 750 mmHg 87%
    20:00 +20°C° 0.5 mm 7 mps 750 mmHg 87%
    21:00 +20°C° 0.5 mm 7 mps 750 mmHg 87%
    22:00 +20°C° 0.5 mm 7 mps 750 mmHg 86%
    23:00 +20°C° 0.6 mm 7 mps 750 mmHg 86%

    28 October, Sunday

    Time Temperature Precipitation Wind Pressure Humidity
    00:00 +20°C° 0.6 mm 7 mps 749 mmHg 85%
    01:00 +20°C° 0.6 mm 8 mps 749 mmHg 85%
    02:00 +20°C° 0.6 mm 8 mps 749 mmHg 86%
    03:00 +18°C° 0.6 mm 8 mps 749 mmHg 86%
    04:00 +18°C° 0.6 mm 8 mps 749 mmHg 86%
    05:00 +18°C° 0.6 mm 9 mps 749 mmHg 87%
    06:00 +18°C° 0.6 mm 9 mps 749 mmHg 87%
    07:00 +18°C° 0.6 mm 10 mps 749 mmHg 88%
    08:00 +19°C° 0.5 mm 11 mps 749 mmHg 87%
    09:00 +19°C° 0.5 mm 11 mps 749 mmHg 87%
    10:00 +19°C° 0.5 mm 12 mps 749 mmHg 86%
    11:00 +19°C° 0.5 mm 12 mps 748 mmHg 86%
    12:00 +19°C° 0.5 mm 12 mps 748 mmHg 87%
    13:00 +19°C° 0.5 mm 12 mps 748 mmHg 87%
    14:00 +19°C° 0.8 mm 12 mps 748 mmHg 87%
    15:00 +19°C° 0.8 mm 12 mps 748 mmHg 87%
    16:00 +18°C° 0.8 mm 12 mps 747 mmHg 87%
    17:00 +18°C° 1.2 mm 13 mps 747 mmHg 88%
    18:00 +18°C° 1.2 mm 13 mps 747 mmHg 89%
    19:00 +18°C° 1.2 mm 13 mps 747 mmHg 90%
    20:00 +18°C° 1.6 mm 13 mps 747 mmHg 90%
    21:00 +18°C° 1.6 mm 14 mps 747 mmHg 90%
    22:00 +18°C° 1.6 mm 14 mps 746 mmHg 90%
    23:00 +18°C° 4 mm 14 mps 746 mmHg 90%

    29 October, Monday

    Time Temperature Precipitation Wind Pressure Humidity
    00:00 +18°C° 4 mm 14 mps 746 mmHg 90%
    01:00 +18°C° 4 mm 13 mps 745 mmHg 90%
    02:00 +18°C° 5.8 mm 12 mps 745 mmHg 91%
    03:00 +18°C° 5.8 mm 12 mps 745 mmHg 92%
    04:00 +18°C° 5.8 mm 11 mps 744 mmHg 93%
    05:00 +18°C° 8.1 mm 11 mps 744 mmHg 93%
    06:00 +18°C° 8.1 mm 12 mps 744 mmHg 92%
    07:00 +18°C° 8.1 mm 12 mps 744 mmHg 91%
    08:00 +18°C° 4.9 mm 11 mps 744 mmHg 92%
    09:00 +18°C° 4.9 mm 9 mps 744 mmHg 92%
    10:00 +20°C° 4.9 mm 8 mps 744 mmHg 92%
    11:00 +20°C° 1.4 mm 7 mps 744 mmHg 89%
    12:00 +20°C° 1.4 mm 7 mps 744 mmHg 87%
    13:00 +20°C° 1.4 mm 7 mps 744 mmHg 85%
    14:00 +20°C° 0.7 mm 7 mps 744 mmHg 85%
    15:00 +20°C° 0.7 mm 7 mps 744 mmHg 85%
    16:00 +18°C° 0.7 mm 7 mps 744 mmHg 85%
    17:00 +18°C° 0.7 mm 8 mps 744 mmHg 87%
    18:00 +18°C° 0.7 mm 10 mps 744 mmHg 88%
    19:00 +18°C° 0.7 mm 11 mps 744 mmHg 89%
    20:00 +18°C° 2.4 mm 11 mps 745 mmHg 88%
    21:00 +18°C° 2.4 mm 11 mps 745 mmHg 88%
    22:00 +18°C° 2.4 mm 11 mps 745 mmHg 87%
    23:00 +18°C° 2.9 mm 10 mps 745 mmHg 88%

    30 October, Tuesday

    Time Temperature Precipitation Wind Pressure Humidity
    00:00 +18°C° 2.9 mm 10 mps 745 mmHg 89%
    01:00 +18°C° 2.9 mm 9 mps 744 mmHg 90%
    02:00 +17°C° 1.2 mm 8 mps 744 mmHg 90%
    03:00 +17°C° 1.2 mm 7 mps 744 mmHg 90%
    04:00 +16°C° 1.2 mm 5 mps 744 mmHg 90%
    05:00 +17°C° 1.3 mm 4 mps 744 mmHg 89%
    06:00 +17°C° 1.3 mm 3 mps 744 mmHg 88%
    07:00 +16°C° 1.3 mm 3 mps 744 mmHg 87%
    08:00 +16°C° 0.6 mm 2 mps 744 mmHg 86%
    09:00 +16°C° 0.6 mm 2 mps 744 mmHg 85%
    10:00 +16°C° 0.6 mm 2 mps 744 mmHg 85%
    11:00 +15°C° 0.8 mm 2 mps 744 mmHg 84%
    12:00 +15°C° 0.8 mm 2 mps 744 mmHg 83%
    13:00 +15°C° 0.8 mm 1 mps 744 mmHg 82%
    14:00 +15°C° 0.3 mm 2 mps 745 mmHg 83%
    15:00 +15°C° 0.3 mm 2 mps 745 mmHg 85%
    16:00 +14°C° 0.3 mm 2 mps 746 mmHg 86%
    17:00 +13°C° 1 mm 3 mps 746 mmHg 87%
    18:00 +13°C° 1 mm 3 mps 747 mmHg 88%
    19:00 +13°C° 1 mm 3 mps 748 mmHg 89%
    20:00 +13°C° 0.9 mm 3 mps 748 mmHg 88%
    21:00 +13°C° 0.9 mm 3 mps 749 mmHg 87%
    22:00 +13°C° 0.9 mm 3 mps 750 mmHg 87%
    23:00 +12°C° 0.1 mm 3 mps 751 mmHg 87%
    Show more